Location: Sungai Buloh
(3.1000°N, 113.0000°E)
Time: 16:08:35
(UTC+00:00)

TSX-5 - Pass Details

Date: 12 January 2026
Orbit: 384 x 1023 km, 68.9° (Epoch: 10 February)

Event Time Altitude Azimuth Distance (km) Brightness Sun altitude
Exits shadow 21:25:53 20° 339° (NNW) 1,494 5.6 -17.5°
Maximum altitude 21:29:02 83° 255° (WSW) 603 3.9 -16.8°
Drops below altitude 10° 21:32:57 10° 165° (SSE) 1,758 6.9 -15.9°
Sets 21:34:54 0° 164° (SSE) 2,562 7.8 -15.5°
